When you browse on this site, cookies collect data to enhance your experience and personalize the content and advertising you see.
Visit our Privacy Policy to learn more. By continuing to use the site, you agree to this use of cookies and data.
  • en France
  • Liste des pays
  • À 7 jours
  • Température de l'eau
  • Carte satellitaire
  • Carte météo
  • Widgets météo
  • user-avatar
    Se connecter

    Météo par heure à Ondjiva 

    Ce jour, 23 Janvier, Mercredi

    Heure Température Précipitation Vent Pression Humidité
    00:00 +25°C° 2.8 mm 3 m/s 666 mmHg 77%
    01:00 +25°C° 2.8 mm 3 m/s 666 mmHg 80%
    02:00 +23°C° 0.6 mm 4 m/s 666 mmHg 81%
    03:00 +22°C° 0.6 mm 5 m/s 666 mmHg 82%
    04:00 +22°C° 0.6 mm 5 m/s 666 mmHg 83%
    05:00 +22°C° 0 mm 4 m/s 666 mmHg 81%
    06:00 +22°C° 0 mm 3 m/s 667 mmHg 79%
    07:00 +23°C° 0 mm 2 m/s 667 mmHg 76%
    08:00 +25°C° 0 mm 2 m/s 667 mmHg 64%
    09:00 +28°C° 0 mm 2 m/s 668 mmHg 52%
    10:00 +30°C° 0 mm 2 m/s 668 mmHg 40%
    11:00 +31°C° 0 mm 2 m/s 668 mmHg 36%
    12:00 +34°C° 0 mm 2 m/s 668 mmHg 33%
    13:00 +35°C° 0 mm 2 m/s 667 mmHg 29%
    14:00 +35°C° 0 mm 2 m/s 667 mmHg 28%
    15:00 +36°C° 0 mm 2 m/s 666 mmHg 27%
    16:00 +36°C° 0 mm 2 m/s 666 mmHg 27%
    17:00 +34°C° 0 mm 2 m/s 665 mmHg 30%
    18:00 +32°C° 0 mm 2 m/s 665 mmHg 34%
    19:00 +30°C° 0 mm 2 m/s 665 mmHg 38%
    20:00 +30°C° 0 mm 2 m/s 665 mmHg 40%
    21:00 +29°C° 0 mm 2 m/s 666 mmHg 42%
    22:00 +28°C° 0 mm 2 m/s 666 mmHg 44%
    23:00 +27°C° 0 mm 2 m/s 666 mmHg 47%

    Demain, 24 Janvier, Jeudi

    Heure Température Précipitation Vent Pression Humidité
    00:00 +26°C° 0 mm 2 m/s 666 mmHg 50%
    01:00 +26°C° 0 mm 3 m/s 666 mmHg 53%
    02:00 +26°C° 0 mm 3 m/s 666 mmHg 51%
    03:00 +26°C° 0 mm 2 m/s 666 mmHg 50%
    04:00 +25°C° 0 mm 2 m/s 666 mmHg 49%
    05:00 +25°C° 0 mm 2 m/s 666 mmHg 48%
    06:00 +25°C° 0 mm 2 m/s 666 mmHg 46%
    07:00 +25°C° 0 mm 2 m/s 667 mmHg 45%
    08:00 +28°C° 0 mm 2 m/s 667 mmHg 38%
    09:00 +30°C° 0 mm 2 m/s 668 mmHg 30%
    10:00 +32°C° 0 mm 2 m/s 668 mmHg 22%
    11:00 +35°C° 0 mm 2 m/s 668 mmHg 21%
    12:00 +36°C° 0 mm 2 m/s 667 mmHg 20%
    13:00 +36°C° 0 mm 1 m/s 667 mmHg 18%
    14:00 +37°C° 0 mm 2 m/s 666 mmHg 18%
    15:00 +37°C° 0 mm 2 m/s 666 mmHg 17%
    16:00 +37°C° 0 mm 2 m/s 665 mmHg 17%
    17:00 +35°C° 0 mm 1 m/s 665 mmHg 20%
    18:00 +33°C° 0 mm 1 m/s 665 mmHg 23%
    19:00 +31°C° 0 mm 1 m/s 664 mmHg 26%
    20:00 +30°C° 0 mm 1 m/s 665 mmHg 30%
    21:00 +29°C° 0 mm 1 m/s 665 mmHg 34%
    22:00 +28°C° 0 mm 2 m/s 666 mmHg 37%
    23:00 +27°C° 0 mm 2 m/s 666 mmHg 43%

    Après-demain, 25 Janvier, Vendredi

    Heure Température Précipitation Vent Pression Humidité
    00:00 +27°C° 0 mm 3 m/s 665 mmHg 49%
    01:00 +26°C° 0 mm 3 m/s 665 mmHg 55%
    02:00 +25°C° 0 mm 3 m/s 665 mmHg 55%
    03:00 +25°C° 0 mm 3 m/s 665 mmHg 56%
    04:00 +24°C° 0 mm 2 m/s 665 mmHg 56%
    05:00 +25°C° 0 mm 2 m/s 665 mmHg 54%
    06:00 +25°C° 0 mm 2 m/s 666 mmHg 53%
    07:00 +25°C° 0 mm 2 m/s 667 mmHg 51%
    08:00 +28°C° 0 mm 2 m/s 667 mmHg 44%
    09:00 +30°C° 0 mm 2 m/s 668 mmHg 38%
    10:00 +34°C° 0 mm 2 m/s 669 mmHg 31%
    11:00 +35°C° 0 mm 2 m/s 668 mmHg 29%
    12:00 +37°C° 0 mm 2 m/s 668 mmHg 26%
    13:00 +37°C° 0 mm 1 m/s 668 mmHg 24%
    14:00 +36°C° 0 mm 1 m/s 667 mmHg 25%
    15:00 +36°C° 0 mm 1 m/s 666 mmHg 26%
    16:00 +35°C° 0 mm 1 m/s 665 mmHg 27%
    17:00 +32°C° 0 mm 0 m/s 665 mmHg 29%
    18:00 +31°C° 0 mm 0 m/s 665 mmHg 31%
    19:00 +29°C° 0 mm 0 m/s 666 mmHg 33%
    20:00 +31°C° 0 mm 1 m/s 666 mmHg 35%
    21:00 +30°C° 0 mm 1 m/s 666 mmHg 37%
    22:00 +29°C° 0 mm 1 m/s 667 mmHg 40%
    23:00 +28°C° 0 mm 1 m/s 667 mmHg 41%

    26 Janvier, Samedi

    Heure Température Précipitation Vent Pression Humidité
    00:00 +28°C° 0 mm 1 m/s 667 mmHg 43%
    01:00 +27°C° 0 mm 1 m/s 666 mmHg 45%
    02:00 +26°C° 0 mm 1 m/s 666 mmHg 48%
    03:00 +25°C° 0 mm 1 m/s 666 mmHg 52%
    04:00 +24°C° 0 mm 1 m/s 666 mmHg 56%
    05:00 +25°C° 0 mm 2 m/s 666 mmHg 56%
    06:00 +25°C° 0 mm 2 m/s 667 mmHg 56%
    07:00 +25°C° 0 mm 3 m/s 667 mmHg 57%
    08:00 +28°C° 0 mm 2 m/s 668 mmHg 50%
    09:00 +30°C° 0 mm 2 m/s 669 mmHg 43%
    10:00 +34°C° 0 mm 2 m/s 669 mmHg 36%
    11:00 +35°C° 0 mm 1 m/s 669 mmHg 32%
    12:00 +37°C° 0 mm 1 m/s 669 mmHg 28%
    13:00 +39°C° 0 mm 1 m/s 668 mmHg 24%
    14:00 +39°C° 0 mm 1 m/s 668 mmHg 25%
    15:00 +37°C° 0 mm 1 m/s 667 mmHg 25%
    16:00 +36°C° 0 mm 1 m/s 666 mmHg 26%
    17:00 +35°C° 0 mm 1 m/s 666 mmHg 28%
    18:00 +34°C° 0 mm 1 m/s 666 mmHg 30%
    19:00 +31°C° 0 mm 0 m/s 666 mmHg 31%
    20:00 +32°C° 0 mm 1 m/s 666 mmHg 34%
    21:00 +31°C° 0 mm 1 m/s 667 mmHg 36%
    22:00 +30°C° 0 mm 1 m/s 667 mmHg 38%
    23:00 +29°C° 0.3 mm 1 m/s 667 mmHg 42%

    27 Janvier, Dimanche

    Heure Température Précipitation Vent Pression Humidité
    00:00 +28°C° 0.3 mm 1 m/s 667 mmHg 47%
    01:00 +27°C° 0.3 mm 2 m/s 666 mmHg 51%
    02:00 +27°C° 0.3 mm 1 m/s 666 mmHg 54%
    03:00 +26°C° 0.3 mm 1 m/s 666 mmHg 58%
    04:00 +25°C° 0.3 mm 1 m/s 666 mmHg 61%
    05:00 +25°C° 0.2 mm 1 m/s 666 mmHg 62%
    06:00 +25°C° 0.2 mm 1 m/s 667 mmHg 63%
    07:00 +25°C° 0.2 mm 1 m/s 667 mmHg 64%
    08:00 +27°C° 0 mm 1 m/s 668 mmHg 55%
    09:00 +30°C° 0 mm 1 m/s 668 mmHg 45%
    10:00 +33°C° 0 mm 1 m/s 669 mmHg 35%
    11:00 +34°C° 0 mm 1 m/s 668 mmHg 31%
    12:00 +36°C° 0 mm 1 m/s 668 mmHg 28%
    13:00 +38°C° 0 mm 2 m/s 668 mmHg 24%
    14:00 +37°C° 0 mm 1 m/s 667 mmHg 25%
    15:00 +36°C° 0 mm 1 m/s 666 mmHg 25%
    16:00 +36°C° 0 mm 1 m/s 665 mmHg 25%
    17:00 +35°C° 0 mm 1 m/s 665 mmHg 27%
    18:00 +34°C° 0 mm 1 m/s 665 mmHg 28%
    19:00 +31°C° 0 mm 0 m/s 665 mmHg 30%
    20:00 +31°C° 0 mm 1 m/s 666 mmHg 33%
    21:00 +30°C° 0 mm 1 m/s 666 mmHg 36%
    22:00 +29°C° 0 mm 2 m/s 666 mmHg 38%
    23:00 +28°C° 0.1 mm 2 m/s 666 mmHg 43%

    28 Janvier, Lundi

    Heure Température Précipitation Vent Pression Humidité
    00:00 +27°C° 0.1 mm 2 m/s 666 mmHg 47%
    01:00 +26°C° 0.1 mm 3 m/s 666 mmHg 51%
    02:00 +26°C° 0 mm 2 m/s 666 mmHg 49%
    03:00 +25°C° 0 mm 2 m/s 666 mmHg 47%
    04:00 +25°C° 0 mm 2 m/s 666 mmHg 46%
    05:00 +25°C° 0 mm 2 m/s 666 mmHg 47%
    06:00 +25°C° 0 mm 2 m/s 667 mmHg 48%
    07:00 +25°C° 0 mm 2 m/s 667 mmHg 49%
    08:00 +27°C° 0 mm 2 m/s 668 mmHg 42%
    09:00 +29°C° 0 mm 2 m/s 668 mmHg 35%
    10:00 +33°C° 0 mm 3 m/s 668 mmHg 28%
    11:00 +35°C° 0 mm 2 m/s 668 mmHg 26%
    12:00 +36°C° 0 mm 2 m/s 668 mmHg 24%
    13:00 +37°C° 0 mm 1 m/s 667 mmHg 22%
    14:00 +37°C° 0 mm 1 m/s 667 mmHg 21%
    15:00 +39°C° 0 mm 1 m/s 666 mmHg 20%
    16:00 +39°C° 0 mm 1 m/s 665 mmHg 19%
    17:00 +34°C° 0 mm 0 m/s 665 mmHg 22%
    18:00 +32°C° 0 mm 0 m/s 665 mmHg 24%
    19:00 +30°C° 0 mm 0 m/s 664 mmHg 26%
    20:00 +31°C° 0 mm 1 m/s 665 mmHg 28%
    21:00 +30°C° 0 mm 1 m/s 666 mmHg 30%
    22:00 +29°C° 0 mm 1 m/s 666 mmHg 32%
    23:00 +29°C° 0 mm 2 m/s 666 mmHg 34%
    Voir plus